Location: downtown San Diego
(32.7310°N, 117.1990°W)
Time: 02:12:31
(UTC-07:00)

Meteor 2-4 Rocket - Pass Details

Date: 19 May 2017
Orbit: 800 x 908 km, 81.2° (Epoch: 25 September)

Event Time Altitude Azimuth Distance (km) Brightness Sun altitude
Exits shadow 22:26:39 40° 230° (SW) 1,222 4.4 -27.7°
Maximum altitude 22:28:18 53° 281° (W) 1,025 4.3 -27.9°
Drops below altitude 10° 22:33:50 10° 358° (N) 2,507 6.8 -28.6°
Sets 22:36:23 0° 3° (N) 3,464 7.6 -28.9°
